[[{"header":{"parameterUnit":"m.s-1","parameterCategory":1,"la1":30.2991,"la2":30.254,"lo1":-89.0895,"lo2":-89.0444,"dy":0.0017,"dx":0.0017,"nx":28,"ny":28,"refTime":"2023-09-05T21:00:00:Z","depth":0,"parameterNumber":2,"parameterNumberName":"U-component_of_WINDS"},"data":[0,0,0,0,0,0,0,0,0,0,0,0,0,0,0,0,0,0,0,0,0,0,0,0,0,0,0,0,0,0,0,0,0,0,0,0,0,0,0,0,0,0,0,0,0,0,0,0,0,0,0,0,0,0,0,0,0,0,-0.3647,-0.3649,0,-0.3757,-0.3758,-0.3759,-0.3795,-0.3794,-0.3794,-0.3793,-0.3905,-0.3908,-0.3911,0,0,0,0,0,0,0,0,0,0,0,0,0,-0.3469,-0.3472,-0.3647,-0.3649,-0.365,-0.3756,-0.3758,-0.3759,-0.3795,-0.3794,-0.3793,-0.3793,-0.3904,-0.3908,-0.3912,0,0,0,0,0,0,0,0,0,0,0,0,0,-0.3559,-0.3473,-0.3647,-0.368,-0.3684,-0.3756,-0.3758,-0.376,-0.3795,-0.3794,-0.3793,-0.3793,-0.3902,-0.3907,-0.3912,-0.3959,0,0,-0.3928,-0.393,0,0,0,0,0,0,0,0,-0.3554,-0.3565,-0.3674,-0.3678,-0.3683,-0.3761,-0.3736,-0.3826,-0.3795,-0.3753,-0.3793,-0.3792,-0.3858,-0.3866,-0.3888,-0.3964,-0.3969,-0.3929,-0.3932,-0.3934,-0.3935,0,0,0,0,0,0,0,-0.3548,-0.3561,-0.3691,-0.3676,-0.3681,-0.369,-0.3702,-0.3753,-0.3808,-0.3756,-0.3759,-0.3772,-0.386,-0.3883,-0.3891,-0.397,-0.3928,-0.3933,-0.3936,-0.3938,-0.4089,-0.409,0,0,0,0,0,0,-0.3536,-0.3556,-0.3687,-0.3694,-0.3615,-0.3694,-0.3707,-0.3737,-0.3808,-0.3818,-0.3772,-0.3773,-0.3875,-0.3885,-0.3895,-0.3954,-0.3934,-0.3939,-0.3942,-0.4088,-0.4089,-0.409,0,0,0,0,0,0,-0.3532,-0.3547,-0.3683,-0.3626,-0.3643,-0.3697,-0.3731,-0.3739,-0.3763,-0.3819,-0.3829,-0.3786,-0.3875,-0.3888,-0.3943,-0.3959,-0.3941,-0.3946,-0.4087,-0.4088,-0.4089,-0.4072,0,0,0,0,0,0,-0.3526,-0.3545,-0.3564,-0.3626,-0.3646,-0.3728,-0.3732,-0.3742,-0.3772,-0.3774,-0.3835,-0.3845,-0.3875,-0.3935,-0.3948,-0.3965,-0.395,-0.4086,-0.4087,-0.4089,-0.4072,-0.4073,-0.4074,0,0,0,0,0,-0.352,-0.3555,-0.3565,-0.358,-0.367,-0.3729,-0.3741,-0.3776,-0.3773,-0.3792,-0.3828,-0.3843,-0.3954,-0.394,-0.3955,-0.3974,-0.4085,-0.4087,-0.4089,-0.4071,-0.4073,-0.4074,0,0,0,0,0,0,-0.3494,-0.3564,-0.3575,-0.3631,-0.3674,-0.3735,-0.376,-0.3776,-0.3821,-0.3821,-0.3861,-0.3875,-0.3926,-0.3956,-0.3938,-0.4023,-0.402,-0.4025,-0.4002,-0.4004,-0.4005,-0.3997,-0.3954,0,0,0,0,0,-0.3495,-0.3536,-0.3595,-0.3639,-0.3659,-0.3706,-0.3733,-0.3755,-0.3801,-0.382,-0.386,-0.3904,-0.3949,-0.3978,-0.4022,-0.4076,-0.409,-0.4096,-0.4097,-0.4098,-0.4102,-0.4133,-0.4136,-0.4097,-0.4097,-0.4097,0,0,-0.3497,-0.354,-0.3564,-0.3635,-0.367,-0.3713,-0.3721,-0.3766,-0.3797,-0.3827,-0.3881,-0.3911,-0.3963,-0.4017,-0.4043,-0.4043,-0.4116,-0.4101,-0.4101,-0.4105,-0.4135,-0.4139,-0.4142,-0.4098,-0.4098,-0.4098,0,0,-0.3523,-0.3559,-0.36,-0.3635,-0.3689,-0.3719,-0.3729,-0.3787,-0.3809,-0.3864,-0.3886,-0.3924,-0.4001,-0.4037,-0.4065,-0.4103,-0.4118,-0.4116,-0.4122,-0.4151,-0.4154,-0.4157,-0.4171,-0.4176,-0.412,-0.412,-0.412,0,-0.3519,-0.3584,-0.3618,-0.3662,-0.3692,-0.372,-0.3761,-0.3793,-0.3859,-0.3879,-0.3878,-0.3975,-0.4012,-0.4074,-0.4083,-0.4105,-0.4117,-0.411,-0.4151,-0.4154,-0.4158,-0.4171,-0.4176,-0.4119,-0.4119,-0.4119,-0.4119,0,-0.3576,-0.362,-0.3646,-0.3709,-0.3742,-0.3784,-0.3825,-0.3854,-0.3873,-0.3903,-0.3958,-0.4003,-0.4057,-0.4073,-0.4093,-0.4139,-0.4137,-0.4143,-0.4142,-0.416,-0.4174,-0.4179,-0.4118,-0.4118,-0.4119,-0.4119,0,0,-0.3591,-0.367,-0.3679,-0.3708,-0.3768,-0.3804,-0.3846,-0.3899,-0.3923,-0.3967,-0.4004,-0.4067,-0.4073,-0.4105,-0.4128,-0.4153,-0.418,-0.4156,-0.4158,-0.416,-0.4234,-0.423,-0.4235,-0.419,-0.4192,-0.4192,-0.423,0,-0.3625,-0.3703,-0.3734,-0.3797,-0.3838,-0.3864,-0.3901,-0.3942,-0.3971,-0.4011,-0.4042,-0.4087,-0.4091,-0.411,-0.4136,-0.4172,-0.4196,-0.4169,-0.4225,-0.4227,-0.4213,-0.4242,-0.4238,-0.4272,-0.4235,-0.4236,-0.4237,0,-0.3676,-0.3719,-0.3786,-0.3841,-0.3859,-0.3892,-0.3942,-0.3979,-0.4026,-0.4045,-0.408,-0.4102,-0.4147,-0.4142,-0.4205,-0.4186,-0.4211,-0.4231,-0.4233,-0.4241,-0.4234,-0.4251,-0.4283,-0.4288,-0.4245,-0.4245,-0.4244,0,-0.368,-0.3756,-0.3805,-0.3828,-0.3893,-0.3916,-0.3944,-0.399,-0.4019,-0.4063,-0.4082,-0.413,-0.4157,-0.4194,-0.4228,-0.422,-0.4288,-0.4285,-0.4305,-0.4304,-0.4319,-0.4318,-0.4356,-0.4333,-0.4333,-0.4333,-0.4333,0,-0.3716,-0.3756,-0.3808,-0.3839,-0.3884,-0.3919,-0.3963,-0.3993,-0.4033,-0.407,-0.4095,-0.4129,-0.4171,-0.4211,-0.4237,-0.4285,-0.4297,-0.4314,-0.4321,-0.4313,-0.431,-0.433,-0.4329,-0.4334,-0.4334,-0.4334,-0.4334,0,-0.373,-0.3766,-0.3822,-0.3878,-0.3893,-0.3924,-0.3972,-0.4003,-0.4032,-0.4078,-0.4091,-0.4137,-0.4184,-0.4221,-0.4283,-0.4301,-0.4352,-0.4359,-0.4337,-0.434,-0.4359,-0.4357,-0.4412,-0.4421,-0.439,-0.4391,-0.4391,0,-0.3751,-0.3782,-0.3841,-0.3867,-0.3895,-0.3937,-0.3966,-0.4002,-0.4032,-0.4086,-0.411,-0.4159,-0.4201,-0.4275,-0.4314,-0.4361,-0.437,-0.4386,-0.4377,-0.4368,-0.4371,-0.4369,-0.4372,-0.4387,-0.4387,-0.4387,-0.4387,0,-0.3784,-0.38,-0.3842,-0.3889,-0.3924,-0.3963,-0.4003,-0.4023,-0.4066,-0.4098,-0.4146,-0.4178,-0.4241,-0.4289,-0.434,-0.4369,-0.4386,-0.4389,-0.4397,-0.4389,-0.4375,-0.4384,-0.434,-0.4389,-0.4388,-0.4388,-0.4388,-0.4388,-0.3803,-0.3832,-0.3878,-0.3923,-0.3956,-0.3992,-0.4024,-0.4056,-0.4097,-0.4151,-0.4169,-0.4219,-0.4264,-0.4334,-0.4363,-0.4402,-0.4403,-0.4414,-0.4417,-0.4419,-0.4418,-0.4368,-0.4411,-0.4411,-0.4411,-0.4412,-0.4412,0,-0.3839,-0.3869,-0.391,-0.3965,-0.4,-0.4011,-0.4055,-0.4084,-0.4128,-0.4168,-0.4208,-0.4263,-0.4309,-0.4351,-0.44,-0.4423,-0.4432,-0.4435,-0.4434,-0.4441,-0.4414,-0.4403,-0.4427,-0.4427,-0.4427,-0.4427,-0.4427,-0.4427,-0.3862,-0.3911,-0.3932,-0.3997,-0.4027,-0.4076,-0.41,-0.4134,-0.4166,-0.4227,-0.4265,-0.4292,-0.4333,-0.4384,-0.4427,-0.4438,-0.4455,-0.4456,-0.4469,-0.4444,-0.4442,-0.4441,-0.4431,-0.4459,-0.4459,-0.4493,-0.4493,-0.4493]},{"header":{"parameterUnit":"m.s-1","parameterCategory":1,"la1":30.2991,"la2":30.254,"lo1":-89.0895,"lo2":-89.0444,"dy":0.0017,"dx":0.0017,"nx":28,"ny":28,"refTime":"2023-09-05T21:00:00:Z","depth":0,"parameterNumber":3,"parameterNumberName":"V-component_of_WINDS"},"data":[0,0,0,0,0,0,0,0,0,0,0,0,0,0,0,0,0,0,0,0,0,0,0,0,0,0,0,0,0,0,0,0,0,0,0,0,0,0,0,0,0,0,0,0,0,0,0,0,0,0,0,0,0,0,0,0,0,0,5.3236,5.3236,0,5.3193,5.3192,5.3192,5.3112,5.3111,5.3109,5.3108,5.3063,5.3064,5.3064,0,0,0,0,0,0,0,0,0,0,0,0,0,5.3251,5.3251,5.3236,5.3236,5.3235,5.3193,5.3192,5.3192,5.3112,5.3111,5.3109,5.3107,5.3063,5.3064,5.3064,0,0,0,0,0,0,0,0,0,0,0,0,0,5.323,5.3251,5.3236,5.3191,5.3186,5.3193,5.3192,5.3191,5.3113,5.3111,5.3108,5.3106,5.3063,5.3063,5.3064,5.3112,0,0,5.3065,5.3065,0,0,0,0,0,0,0,0,5.3231,5.3229,5.3198,5.3194,5.3189,5.3156,5.3181,5.3165,5.3113,5.3141,5.3108,5.3105,5.3096,5.3093,5.309,5.311,5.3108,5.3065,5.3065,5.3065,5.3065,0,0,0,0,0,0,0,5.3233,5.3231,5.3219,5.3198,5.3192,5.3172,5.3167,5.3178,5.3132,5.3138,5.3132,5.3128,5.3093,5.309,5.3089,5.3107,5.3065,5.3065,5.3065,5.3066,5.3161,5.3163,0,0,0,0,0,0,5.3241,5.3233,5.322,5.3218,5.3205,5.3174,5.3168,5.3169,5.3131,5.3123,5.313,5.3125,5.3091,5.3088,5.3087,5.3137,5.3065,5.3066,5.3066,5.3159,5.3161,5.3164,0,0,0,0,0,0,5.3242,5.3241,5.3222,5.3224,5.322,5.3176,5.3178,5.3169,5.3166,5.3125,5.3117,5.3136,5.3089,5.3086,5.3105,5.3135,5.3066,5.3066,5.3156,5.3159,5.3163,5.3241,0,0,0,0,0,0,5.3242,5.3241,5.3259,5.3225,5.322,5.3242,5.318,5.317,5.3167,5.3159,5.3128,5.3121,5.3087,5.3105,5.3106,5.3134,5.3066,5.3153,5.3157,5.3162,5.3236,5.3247,5.3257,0,0,0,0,0,5.3243,5.3284,5.326,5.3259,5.3241,5.3244,5.3241,5.3201,5.3169,5.3186,5.316,5.3122,5.3133,5.3108,5.3108,5.3137,5.3151,5.3156,5.3161,5.3231,5.3245,5.3256,0,0,0,0,0,0,5.3323,5.3278,5.3252,5.3282,5.3267,5.323,5.325,5.3217,5.3211,5.3204,5.3155,5.3148,5.3173,5.3158,5.3131,5.318,5.3135,5.3141,5.3189,5.3201,5.3212,5.3213,5.3067,0,0,0,0,0,5.3344,5.335,5.3311,5.3341,5.3335,5.3295,5.3294,5.3265,5.3247,5.324,5.3216,5.32,5.3199,5.32,5.3198,5.3234,5.3225,5.3254,5.3265,5.3273,5.3278,5.3293,5.3305,5.3181,5.3181,5.3181,0,0,5.3387,5.3364,5.337,5.3357,5.3341,5.3348,5.329,5.3299,5.3303,5.3242,5.3257,5.3239,5.3219,5.3246,5.3257,5.3233,5.331,5.328,5.3287,5.3287,5.33,5.3311,5.3322,5.3185,5.3184,5.3183,0,0,5.3469,5.3453,5.3475,5.3461,5.3439,5.3412,5.3418,5.3386,5.3371,5.3386,5.3339,5.3344,5.3345,5.3331,5.3324,5.3401,5.3365,5.3402,5.3455,5.3471,5.3481,5.3489,5.3514,5.3523,5.3407,5.3408,5.3408,0,5.3525,5.3533,5.3491,5.3503,5.3497,5.3443,5.3464,5.3453,5.3432,5.3429,5.3403,5.3402,5.3385,5.3407,5.3425,5.3423,5.3426,5.3404,5.3483,5.3491,5.3498,5.3521,5.353,5.3412,5.3411,5.3411,5.3411,0,5.3602,5.3608,5.3629,5.3608,5.3606,5.3623,5.3583,5.3586,5.3557,5.3532,5.3548,5.3525,5.3516,5.352,5.3493,5.3538,5.3524,5.3492,5.3445,5.3515,5.3535,5.3544,5.3418,5.3417,5.3415,5.3414,0,0,5.3729,5.3686,5.3694,5.3683,5.3655,5.3659,5.3674,5.3664,5.3666,5.3654,5.3663,5.3666,5.3635,5.3628,5.3599,5.3613,5.3672,5.3579,5.3577,5.3594,5.3718,5.374,5.3751,5.3649,5.3651,5.3652,5.3718,0,5.3801,5.3822,5.3785,5.3815,5.3819,5.3768,5.378,5.3764,5.3742,5.3743,5.3719,5.3719,5.3681,5.3676,5.3688,5.3662,5.3695,5.3657,5.3655,5.3656,5.3659,5.3762,5.3785,5.3849,5.3726,5.3728,5.3729,0,5.3887,5.3878,5.3909,5.3877,5.3878,5.389,5.3877,5.3879,5.386,5.3843,5.3835,5.3801,5.3812,5.377,5.3784,5.3759,5.3757,5.3744,5.3745,5.3741,5.3694,5.3757,5.3869,5.3877,5.3742,5.3741,5.374,0,5.3973,5.3969,5.3985,5.3979,5.3944,5.3953,5.3939,5.3918,5.3914,5.3905,5.3902,5.3894,5.3889,5.3883,5.3848,5.3821,5.3865,5.3821,5.385,5.385,5.3858,5.3858,5.3968,5.3863,5.3863,5.3862,5.3862,0,5.4055,5.4075,5.4023,5.4033,5.4053,5.4011,5.4033,5.4014,5.3995,5.4,5.3957,5.3963,5.3916,5.3917,5.389,5.3904,5.3903,5.3888,5.388,5.389,5.3892,5.3886,5.3879,5.3865,5.3864,5.3864,5.3863,0,5.4152,5.4119,5.4133,5.4099,5.4092,5.4108,5.4078,5.4086,5.4062,5.4069,5.4068,5.403,5.4029,5.3993,5.3985,5.3966,5.3991,5.3976,5.3997,5.3991,5.4021,5.4017,5.4128,5.414,5.403,5.4031,5.4032,0,5.4205,5.4218,5.4186,5.4187,5.4174,5.4176,5.4172,5.4132,5.413,5.4109,5.4119,5.4114,5.4107,5.4107,5.4079,5.4072,5.4055,5.4094,5.4053,5.4062,5.4052,5.405,5.405,5.4102,5.4103,5.4104,5.4105,0,5.4301,5.4284,5.428,5.4271,5.4268,5.4259,5.4247,5.4249,5.4205,5.4205,5.4203,5.4198,5.4189,5.4184,5.4172,5.4157,5.4123,5.4119,5.4124,5.4134,5.4144,5.4136,5.4017,5.4115,5.4114,5.4114,5.4113,5.4113,5.4375,5.4384,5.4363,5.436,5.4347,5.4337,5.4342,5.4319,5.4316,5.4305,5.4283,5.4284,5.4264,5.4244,5.4232,5.4232,5.4212,5.4221,5.4223,5.4225,5.423,5.4147,5.423,5.423,5.423,5.4229,5.4229,0,5.4466,5.445,5.4448,5.4433,5.4431,5.4401,5.4386,5.4386,5.4388,5.4372,5.4367,5.4364,5.4359,5.4331,5.4323,5.4328,5.4313,5.4327,5.4325,5.4322,5.425,5.4244,5.434,5.434,5.434,5.434,5.434,5.434,5.4513,5.4526,5.4507,5.4514,5.4498,5.4498,5.4492,5.4483,5.447,5.4469,5.4465,5.4447,5.4426,5.4416,5.441,5.4402,5.44,5.4419,5.4406,5.4338,5.4327,5.4317,5.4311,5.4419,5.442,5.4477,5.4478,5.4478]}]]